Station Historical Data
Daily Summary for June 3, 2017 Units:  English    Metric   Both
« Previous Day
Next Day »
Daily Weekly Monthly Yearly Custom
  High: Low: Average:
Temperature: 70.2 °F 50.6 °F 60.8 °F
Dew Point: 51.5 °F 41.6 °F 46 °F
Humidity: 86% 40% 60%
Wind Speed: 7.0mph 0.0mph 2.1mph
Wind Gust: 15.0mph - -
Wind- - SW
Pressure: 30.08 in 29.99 in -
Precipitation: 0.00 in    
Historical Graphs
 
 
Tabular Data for June 3, 2017
Time Temperature Dew Point Pressure Wind Wind Speed Wind Gust Humidity Rainfall Rate (Hourly)
00:04 53.8 °F 46.8 °F 30.00 in Calm     77% 0.00 in
00:09 53.6 °F 46.6 °F 30.00 in Calm     77% 0.00 in
00:14 53.4 °F 46.7 °F 29.99 in Calm     78% 0.00 in
00:19 53.3 °F 46.6 °F 30.00 in Calm     78% 0.00 in
00:24 53.3 °F 46.6 °F 29.99 in Calm     78% 0.00 in
00:29 53.3 °F 46.6 °F 29.99 in Calm     78% 0.00 in
00:34 53.4 °F 46.7 °F 29.99 in Calm     78% 0.00 in
00:39 53.4 °F 46.7 °F 29.99 in Calm     78% 0.00 in
00:44 53.4 °F 46.7 °F 29.99 in Calm     78% 0.00 in
00:49 53.3 °F 46.3 °F 30.00 in Calm     77% 0.00 in
00:54 53.3 °F 46.3 °F 29.99 in Calm     77% 0.00 in
00:59 53.2 °F 46.5 °F 29.99 in Calm     78% 0.00 in
01:04 53.2 °F 46.2 °F 29.99 in Calm     77% 0.00 in
01:09 53.4 °F 46.4 °F 29.99 in Calm   2.0 mph 77% 0.00 in
01:14 53.6 °F 46.2 °F 29.99 in NW 1.0 mph 3.0 mph 76% 0.00 in
01:19 54.1 °F 46.3 °F 29.99 in NW 1.0 mph 3.0 mph 75% 0.00 in
01:24 54.3 °F 46.2 °F 29.99 in NNW 1.0 mph 3.0 mph 74% 0.00 in
01:29 54.4 °F 45.9 °F 29.99 in NNW 2.0 mph 3.0 mph 73% 0.00 in
01:34 54.6 °F 46.1 °F 29.99 in NNW 1.0 mph 3.0 mph 73% 0.00 in
01:39 54.7 °F 46.2 °F 29.99 in Calm   1.0 mph 73% 0.00 in
01:44 54.7 °F 45.8 °F 29.99 in Calm   1.0 mph 72% 0.00 in
01:49 54.7 °F 45.5 °F 29.99 in Calm   2.0 mph 71% 0.00 in
01:54 54.7 °F 45.1 °F 29.99 in North 1.0 mph 3.0 mph 70% 0.00 in
01:59 54.6 °F 45.0 °F 29.99 in NNW 1.0 mph 5.0 mph 70% 0.00 in
02:04 54.5 °F 44.9 °F 29.99 in North 1.0 mph 5.0 mph 70% 0.00 in
02:09 54.6 °F 45.0 °F 29.99 in NNW 1.0 mph 3.0 mph 70% 0.00 in
02:14 54.4 °F 44.8 °F 29.99 in NNW 1.0 mph 5.0 mph 70% 0.00 in
02:19 54.4 °F 44.4 °F 29.99 in NNW 1.0 mph 5.0 mph 69% 0.00 in
02:29 54.2 °F 44.2 °F 30.00 in NNW 2.0 mph 4.0 mph 69% 0.00 in
02:34 54.1 °F 44.2 °F 30.00 in NNW 3.0 mph 5.0 mph 69% 0.00 in
02:39 54.0 °F 43.7 °F 30.00 in Calm   7.0 mph 68% 0.00 in
02:44 53.9 °F 43.6 °F 30.00 in Calm   5.0 mph 68% 0.00 in
02:49 53.8 °F 43.5 °F 30.00 in North 2.0 mph 3.0 mph 68% 0.00 in
02:54 53.8 °F 43.9 °F 29.99 in North 2.0 mph 3.0 mph 69% 0.00 in
02:59 53.8 °F 43.9 °F 29.99 in North 1.0 mph 2.0 mph 69% 0.00 in
03:04 53.9 °F 44.0 °F 30.00 in North 1.0 mph 4.0 mph 69% 0.00 in
03:09 53.9 °F 44.0 °F 30.00 in North 1.0 mph 4.0 mph 69% 0.00 in
03:14 53.9 °F 43.6 °F 30.00 in NNW 2.0 mph 5.0 mph 68% 0.00 in
03:19 53.9 °F 44.0 °F 30.00 in NNW 2.0 mph 5.0 mph 69% 0.00 in
03:24 53.8 °F 43.9 °F 29.99 in Calm   3.0 mph 69% 0.00 in
03:29 53.9 °F 43.6 °F 29.99 in ENE 1.0 mph 4.0 mph 68% 0.00 in
03:34 54.0 °F 44.1 °F 29.99 in NE 1.0 mph 4.0 mph 69% 0.00 in
03:39 53.9 °F 44.7 °F 30.00 in North 1.0 mph 3.0 mph 71% 0.00 in
03:44 53.8 °F 44.6 °F 30.00 in Calm   2.0 mph 71% 0.00 in
03:49 53.7 °F 45.2 °F 30.00 in Calm   2.0 mph 73% 0.00 in
03:54 53.5 °F 45.4 °F 30.00 in Calm     74% 0.00 in
03:59 53.3 °F 45.2 °F 30.00 in Calm     74% 0.00 in
04:04 53.3 °F 45.6 °F 30.00 in Calm     75% 0.00 in
04:09 53.1 °F 45.4 °F 30.00 in Calm     75% 0.00 in
04:14 53.1 °F 46.1 °F 30.00 in Calm     77% 0.00 in
04:19 52.8 °F 45.4 °F 30.00 in Calm     76% 0.00 in
04:24 52.6 °F 45.9 °F 30.00 in Calm     78% 0.00 in
04:29 52.7 °F 46.4 °F 30.01 in Calm     79% 0.00 in
04:34 52.8 °F 46.5 °F 30.01 in Calm     79% 0.00 in
04:39 52.7 °F 46.4 °F 30.01 in Calm     79% 0.00 in
04:44 52.6 °F 46.3 °F 30.01 in Calm     79% 0.00 in
04:49 52.4 °F 46.1 °F 30.01 in Calm     79% 0.00 in
04:54 52.5 °F 46.5 °F 30.02 in Calm     80% 0.00 in
04:59 52.4 °F 46.1 °F 30.01 in Calm     79% 0.00 in
05:04 52.4 °F 45.7 °F 30.01 in Calm     78% 0.00 in
05:09 52.7 °F 46.7 °F 30.01 in Calm     80% 0.00 in
05:14 52.7 °F 46.7 °F 30.01 in Calm     80% 0.00 in
05:19 52.5 °F 46.5 °F 30.02 in Calm     80% 0.00 in
05:24 52.5 °F 46.2 °F 30.02 in Calm     79% 0.00 in
05:29 52.4 °F 46.7 °F 30.03 in Calm     81% 0.00 in
05:34 52.3 °F 46.6 °F 30.03 in Calm     81% 0.00 in
05:39 52.0 °F 46.3 °F 30.03 in Calm     81% 0.00 in
05:44 51.8 °F 46.5 °F 30.03 in Calm     82% 0.00 in
05:49 51.7 °F 46.7 °F 30.04 in Calm     83% 0.00 in
05:54 51.6 °F 46.6 °F 30.04 in Calm     83% 0.00 in
05:59 51.3 °F 46.6 °F 30.04 in Calm     84% 0.00 in
06:04 51.0 °F 46.3 °F 30.04 in Calm     84% 0.00 in
06:09 50.8 °F 46.5 °F 30.04 in Calm     85% 0.00 in
06:14 50.7 °F 46.4 °F 30.04 in Calm     85% 0.00 in
06:19 50.6 °F 46.6 °F 30.04 in Calm     86% 0.00 in
06:24 50.7 °F 46.7 °F 30.05 in Calm     86% 0.00 in
06:29 50.9 °F 46.9 °F 30.05 in Calm     86% 0.00 in
06:34 51.4 °F 47.4 °F 30.06 in Calm     86% 0.00 in
06:39 52.1 °F 47.7 °F 30.06 in North 1.0 mph 2.0 mph 85% 0.00 in
06:44 52.7 °F 47.7 °F 30.06 in Calm   2.0 mph 83% 0.00 in
06:49 53.3 °F 47.3 °F 30.07 in Calm   1.0 mph 80% 0.00 in
06:54 53.5 °F 46.5 °F 30.06 in Calm     77% 0.00 in
06:59 53.9 °F 46.2 °F 30.06 in Calm   3.0 mph 75% 0.00 in
07:04 54.3 °F 45.8 °F 30.07 in NNE 1.0 mph 3.0 mph 73% 0.00 in
07:09 54.4 °F 45.9 °F 30.07 in NNE 1.0 mph 2.0 mph 73% 0.00 in
07:14 54.6 °F 45.4 °F 30.07 in North 1.0 mph 4.0 mph 71% 0.00 in
07:19 55.0 °F 45.0 °F 30.07 in North 2.0 mph 7.0 mph 69% 0.00 in
07:24 55.1 °F 44.7 °F 30.07 in NNE 2.0 mph 7.0 mph 68% 0.00 in
07:29 55.3 °F 44.5 °F 30.07 in NNE 3.0 mph 7.0 mph 67% 0.00 in
07:34 55.3 °F 44.5 °F 30.08 in NNE 2.0 mph 6.0 mph 67% 0.00 in
07:39 55.5 °F 44.3 °F 30.08 in ENE 4.0 mph 9.0 mph 66% 0.00 in
07:44 55.8 °F 44.6 °F 30.08 in ENE 2.0 mph 8.0 mph 66% 0.00 in
07:49 56.0 °F 44.8 °F 30.08 in ENE 3.0 mph 10.0 mph 66% 0.00 in
07:54 56.3 °F 44.7 °F 30.08 in NE 2.0 mph 7.0 mph 65% 0.00 in
07:59 56.5 °F 45.3 °F 30.08 in North 3.0 mph 7.0 mph 66% 0.00 in
08:04 56.7 °F 45.1 °F 30.08 in North 3.0 mph 5.0 mph 65% 0.00 in
08:09 56.7 °F 45.1 °F 30.08 in ENE 4.0 mph 7.0 mph 65% 0.00 in
08:14 57.2 °F 45.5 °F 30.08 in NE 2.0 mph 7.0 mph 65% 0.00 in
08:19 57.6 °F 45.9 °F 30.08 in ENE 2.0 mph 7.0 mph 65% 0.00 in
08:24 57.7 °F 45.2 °F 30.08 in ENE 2.0 mph 5.0 mph 63% 0.00 in
08:29 58.0 °F 45.9 °F 30.08 in NE 2.0 mph 6.0 mph 64% 0.00 in
08:34 58.1 °F 45.6 °F 30.08 in NE 2.0 mph 6.0 mph 63% 0.00 in
08:39 58.6 °F 47.3 °F 30.08 in ESE 2.0 mph 6.0 mph 66% 0.00 in
08:44 58.6 °F 45.6 °F 30.08 in East 3.0 mph 6.0 mph 62% 0.00 in
08:54 59.1 °F 46.1 °F 30.08 in NNE 2.0 mph 3.0 mph 62% 0.00 in
08:59 59.0 °F 45.6 °F 30.08 in Calm   4.0 mph 61% 0.00 in
09:04 59.5 °F 45.6 °F 30.08 in ENE 1.0 mph 4.0 mph 60% 0.00 in
09:09 60.2 °F 46.3 °F 30.08 in NE 2.0 mph 7.0 mph 60% 0.00 in
09:14 60.7 °F 45.8 °F 30.08 in ENE 2.0 mph 5.0 mph 58% 0.00 in
09:19 60.5 °F 46.5 °F 30.08 in NE 2.0 mph 5.0 mph 60% 0.00 in
09:24 60.6 °F 47.9 °F 30.08 in ENE 1.0 mph 5.0 mph 63% 0.00 in
09:29 61.2 °F 46.3 °F 30.08 in NE 1.0 mph 5.0 mph 58% 0.00 in
09:34 61.5 °F 45.7 °F 30.08 in NNE 1.0 mph 5.0 mph 56% 0.00 in
09:39 61.5 °F 46.6 °F 30.08 in ESE 1.0 mph 4.0 mph 58% 0.00 in
09:44 62.3 °F 46.4 °F 30.08 in ESE 1.0 mph 4.0 mph 56% 0.00 in
09:49 62.0 °F 45.6 °F 30.08 in SW 3.0 mph 4.0 mph 55% 0.00 in
09:54 62.0 °F 47.5 °F 30.08 in SSW 2.0 mph 4.0 mph 59% 0.00 in
09:59 62.9 °F 47.4 °F 30.08 in West 1.0 mph 5.0 mph 57% 0.00 in
10:04 62.9 °F 46.5 °F 30.07 in West 1.0 mph 6.0 mph 55% 0.00 in
10:09 63.0 °F 46.1 °F 30.07 in WSW 1.0 mph 5.0 mph 54% 0.00 in
10:14 62.7 °F 46.3 °F 30.07 in Calm   3.0 mph 55% 0.00 in
10:19 63.6 °F 48.1 °F 30.07 in West 4.0 mph 6.0 mph 57% 0.00 in
10:24 63.7 °F 46.2 °F 30.07 in West 2.0 mph 6.0 mph 53% 0.00 in
10:29 64.3 °F 46.8 °F 30.07 in WNW 1.0 mph 4.0 mph 53% 0.00 in
10:34 64.2 °F 47.2 °F 30.07 in SW 3.0 mph 4.0 mph 54% 0.00 in
10:39 63.8 °F 48.3 °F 30.07 in WNW 3.0 mph 5.0 mph 57% 0.00 in
10:44 63.7 °F 45.7 °F 30.07 in SW 3.0 mph 7.0 mph 52% 0.00 in
10:49 64.2 °F 45.7 °F 30.07 in West 4.0 mph 5.0 mph 51% 0.00 in
10:54 64.9 °F 48.3 °F 30.07 in WNW 3.0 mph 8.0 mph 55% 0.00 in
10:59 65.6 °F 47.5 °F 30.07 in NW 2.0 mph 8.0 mph 52% 0.00 in
11:04 66.3 °F 47.1 °F 30.07 in NW 3.0 mph 8.0 mph 50% 0.00 in
11:09 66.3 °F 47.6 °F 30.07 in WNW 4.0 mph 8.0 mph 51% 0.00 in
11:14 65.9 °F 46.2 °F 30.07 in WNW 4.0 mph 8.0 mph 49% 0.00 in
11:19 66.4 °F 46.7 °F 30.07 in West 6.0 mph 13.0 mph 49% 0.00 in
11:24 66.3 °F 46.0 °F 30.07 in NNW 4.0 mph 7.0 mph 48% 0.00 in
11:29 65.9 °F 46.2 °F 30.06 in North 3.0 mph 7.0 mph 49% 0.00 in
11:34 67.1 °F 48.9 °F 30.06 in NNE 4.0 mph 9.0 mph 52% 0.00 in
11:39 65.6 °F 46.5 °F 30.06 in NW 2.0 mph 7.0 mph 50% 0.00 in
11:44 65.7 °F 47.6 °F 30.06 in West 6.0 mph 9.0 mph 52% 0.00 in
11:49 66.3 °F 48.7 °F 30.06 in NW 2.0 mph 7.0 mph 53% 0.00 in
11:54 66.8 °F 48.6 °F 30.06 in NW 2.0 mph 8.0 mph 52% 0.00 in
11:59 67.9 °F 46.9 °F 30.06 in WNW 5.0 mph 12.0 mph 47% 0.00 in
12:04 67.8 °F 46.3 °F 30.06 in WNW 5.0 mph 12.0 mph 46% 0.00 in
12:09 67.4 °F 45.9 °F 30.06 in NW 4.0 mph 11.0 mph 46% 0.00 in
12:14 67.2 °F 47.4 °F 30.05 in NNW 4.0 mph 9.0 mph 49% 0.00 in
12:19 68.2 °F 46.6 °F 30.05 in NNW 5.0 mph 9.0 mph 46% 0.00 in
12:24 68.3 °F 48.9 °F 30.06 in West 4.0 mph 14.0 mph 50% 0.00 in
12:29 68.6 °F 50.8 °F 30.06 in WNW 5.0 mph 14.0 mph 53% 0.00 in
12:34 68.1 °F 48.2 °F 30.06 in West 5.0 mph 11.0 mph 49% 0.00 in
12:39 67.7 °F 48.4 °F 30.06 in SW 7.0 mph 12.0 mph 50% 0.00 in
12:44 67.9 °F 49.1 °F 30.06 in SW 7.0 mph 14.0 mph 51% 0.00 in
12:49 67.4 °F 49.7 °F 30.06 in WSW 5.0 mph 12.0 mph 53% 0.00 in
12:54 68.1 °F 49.3 °F 30.06 in West 1.0 mph 10.0 mph 51% 0.00 in
12:59 67.6 °F 48.8 °F 30.06 in SW 5.0 mph 13.0 mph 51% 0.00 in
13:04 68.5 °F 50.2 °F 30.06 in SW 5.0 mph 13.0 mph 52% 0.00 in
13:09 67.7 °F 49.4 °F 30.06 in WSW 1.0 mph 9.0 mph 52% 0.00 in
13:14 67.9 °F 49.1 °F 30.06 in NW 7.0 mph 9.0 mph 51% 0.00 in
13:19 68.6 °F 49.2 °F 30.06 in WSW 1.0 mph 9.0 mph 50% 0.00 in
13:24 68.7 °F 50.4 °F 30.06 in WSW 6.0 mph 9.0 mph 52% 0.00 in
13:29 68.8 °F 49.9 °F 30.05 in WSW 4.0 mph 10.0 mph 51% 0.00 in
13:34 68.8 °F 51.5 °F 30.05 in SW 5.0 mph 10.0 mph 54% 0.00 in
13:39 69.5 °F 49.5 °F 30.05 in WSW 4.0 mph 10.0 mph 49% 0.00 in
13:44 70.2 °F 48.4 °F 30.05 in West 4.0 mph 10.0 mph 46% 0.00 in
13:49 69.7 °F 48.0 °F 30.05 in SW 3.0 mph 8.0 mph 46% 0.00 in
13:59 68.8 °F 48.9 °F 30.05 in WSW 5.0 mph 11.0 mph 49% 0.00 in
14:04 69.2 °F 51.3 °F 30.05 in WSW 5.0 mph 10.0 mph 53% 0.00 in
14:09 68.8 °F 48.3 °F 30.05 in SW 6.0 mph 10.0 mph 48% 0.00 in
14:14 68.4 °F 49.0 °F 30.05 in Calm   8.0 mph 50% 0.00 in
14:19 69.2 °F 49.2 °F 30.04 in SW 6.0 mph 8.0 mph 49% 0.00 in
14:24 69.1 °F 48.6 °F 30.04 in SW 5.0 mph 9.0 mph 48% 0.00 in
14:29 69.5 °F 47.2 °F 30.05 in SW 5.0 mph 12.0 mph 45% 0.00 in
14:34 69.4 °F 50.5 °F 30.05 in WSW 5.0 mph 12.0 mph 51% 0.00 in
14:39 68.8 °F 47.7 °F 30.05 in WSW 6.0 mph 13.0 mph 47% 0.00 in
14:44 68.3 °F 50.5 °F 30.04 in WSW 7.0 mph 13.0 mph 53% 0.00 in
14:49 68.6 °F 48.7 °F 30.04 in West 5.0 mph 11.0 mph 49% 0.00 in
14:54 68.0 °F 50.7 °F 30.05 in WSW 7.0 mph 12.0 mph 54% 0.00 in
14:59 68.2 °F 50.9 °F 30.05 in WSW 7.0 mph 12.0 mph 54% 0.00 in
15:04 68.0 °F 48.7 °F 30.05 in WSW 7.0 mph 13.0 mph 50% 0.00 in
15:09 68.2 °F 49.4 °F 30.05 in WSW 5.0 mph 9.0 mph 51% 0.00 in
15:14 68.6 °F 49.2 °F 30.05 in West 6.0 mph 11.0 mph 50% 0.00 in
15:19 68.7 °F 50.4 °F 30.04 in WNW 3.0 mph 12.0 mph 52% 0.00 in
15:24 68.8 °F 48.9 °F 30.05 in WSW 7.0 mph 14.0 mph 49% 0.00 in
15:29 68.7 °F 48.2 °F 30.05 in SW 3.0 mph 12.0 mph 48% 0.00 in
15:34 68.5 °F 49.1 °F 30.05 in WSW 6.0 mph 12.0 mph 50% 0.00 in
15:39 68.4 °F 49.0 °F 30.05 in WSW 7.0 mph 14.0 mph 50% 0.00 in
15:44 68.9 °F 47.8 °F 30.05 in WSW 6.0 mph 15.0 mph 47% 0.00 in
15:49 68.9 °F 48.9 °F 30.04 in SW 6.0 mph 15.0 mph 49% 0.00 in
15:54 68.7 °F 48.2 °F 30.04 in SW 6.0 mph 14.0 mph 48% 0.00 in
15:59 68.8 °F 47.2 °F 30.04 in SW 4.0 mph 11.0 mph 46% 0.00 in
16:04 69.0 °F 48.5 °F 30.05 in SW 6.0 mph 12.0 mph 48% 0.00 in
16:09 68.9 °F 48.4 °F 30.04 in SW 7.0 mph 11.0 mph 48% 0.00 in
16:14 69.1 °F 46.3 °F 30.04 in West 6.0 mph 9.0 mph 44% 0.00 in
16:19 69.3 °F 45.8 °F 30.04 in WSW 3.0 mph 10.0 mph 43% 0.00 in
16:24 69.1 °F 46.3 °F 30.04 in South 5.0 mph 9.0 mph 44% 0.00 in
16:29 69.3 °F 46.4 °F 30.03 in SSW 2.0 mph 9.0 mph 44% 0.00 in
16:34 69.7 °F 46.2 °F 30.03 in SSW 4.0 mph 9.0 mph 43% 0.00 in
16:39 70.1 °F 47.2 °F 30.03 in South 3.0 mph 7.0 mph 44% 0.00 in
16:44 69.9 °F 47.0 °F 30.03 in SSW 3.0 mph 8.0 mph 44% 0.00 in
16:49 69.9 °F 47.0 °F 30.03 in West 4.0 mph 9.0 mph 44% 0.00 in
16:54 69.6 °F 44.2 °F 30.03 in West 5.0 mph 9.0 mph 40% 0.00 in
16:59 69.5 °F 48.4 °F 30.03 in WSW 5.0 mph 7.0 mph 47% 0.00 in
17:04 69.3 °F 43.9 °F 30.03 in SSW 2.0 mph 7.0 mph 40% 0.00 in
17:09 69.3 °F 43.9 °F 30.03 in SW 3.0 mph 7.0 mph 40% 0.00 in
17:14 69.5 °F 44.1 °F 30.03 in SW 6.0 mph 6.0 mph 40% 0.00 in
17:19 69.9 °F 46.4 °F 30.03 in WSW 6.0 mph 8.0 mph 43% 0.00 in
17:24 69.9 °F 47.0 °F 30.03 in West 3.0 mph 7.0 mph 44% 0.00 in
17:29 69.4 °F 44.7 °F 30.03 in SW 2.0 mph 8.0 mph 41% 0.00 in
17:34 69.5 °F 45.4 °F 30.03 in WSW 5.0 mph 8.0 mph 42% 0.00 in
17:39 69.1 °F 45.0 °F 30.03 in SW 5.0 mph 8.0 mph 42% 0.00 in
17:44 69.0 °F 43.7 °F 30.03 in SW 5.0 mph 10.0 mph 40% 0.00 in
17:49 69.0 °F 44.3 °F 30.03 in WSW 4.0 mph 10.0 mph 41% 0.00 in
17:54 68.9 °F 45.5 °F 30.03 in WSW 1.0 mph 8.0 mph 43% 0.00 in
17:59 69.0 °F 44.3 °F 30.03 in South 2.0 mph 9.0 mph 41% 0.00 in
18:04 69.2 °F 46.4 °F 30.03 in SW 4.0 mph 12.0 mph 44% 0.00 in
18:09 69.0 °F 43.7 °F 30.03 in SW 5.0 mph 12.0 mph 40% 0.00 in
18:14 69.2 °F 44.5 °F 30.03 in WSW 5.0 mph 12.0 mph 41% 0.00 in
18:19 69.2 °F 44.5 °F 30.03 in WSW 4.0 mph 9.0 mph 41% 0.00 in
18:24 69.1 °F 45.7 °F 30.03 in WSW 4.0 mph 9.0 mph 43% 0.00 in
18:29 68.8 °F 44.8 °F 30.02 in WSW 3.0 mph 6.0 mph 42% 0.00 in
18:34 68.8 °F 44.1 °F 30.02 in WSW 3.0 mph 5.0 mph 41% 0.00 in
18:39 68.7 °F 43.4 °F 30.02 in SW 3.0 mph 8.0 mph 40% 0.00 in
18:44 68.5 °F 44.5 °F 30.01 in SW 3.0 mph 7.0 mph 42% 0.00 in
18:49 68.4 °F 46.2 °F 30.01 in West 1.0 mph 6.0 mph 45% 0.00 in
18:54 68.3 °F 44.9 °F 30.01 in WSW 2.0 mph 6.0 mph 43% 0.00 in
18:59 68.1 °F 45.4 °F 30.01 in SW 4.0 mph 8.0 mph 44% 0.00 in
19:04 67.8 °F 45.1 °F 30.01 in SSW 2.0 mph 6.0 mph 44% 0.00 in
19:09 67.4 °F 45.9 °F 30.01 in WSW 4.0 mph 5.0 mph 46% 0.00 in
19:14 67.1 °F 46.2 °F 30.01 in SW 3.0 mph 5.0 mph 47% 0.00 in
19:19 66.5 °F 45.1 °F 30.01 in WSW 3.0 mph 6.0 mph 46% 0.00 in
19:24 66.1 °F 45.3 °F 30.01 in WSW 3.0 mph 7.0 mph 47% 0.00 in
19:29 66.0 °F 45.7 °F 30.01 in WSW 2.0 mph 7.0 mph 48% 0.00 in
19:34 65.9 °F 45.1 °F 30.01 in WSW 2.0 mph 4.0 mph 47% 0.00 in
19:39 65.9 °F 44.5 °F 30.01 in West 2.0 mph 6.0 mph 46% 0.00 in
19:44 65.9 °F 43.9 °F 30.01 in SW 2.0 mph 6.0 mph 45% 0.00 in
19:49 66.1 °F 45.3 °F 30.01 in SW 2.0 mph 5.0 mph 47% 0.00 in
19:54 65.6 °F 44.8 °F 30.01 in WSW 3.0 mph 6.0 mph 47% 0.00 in
19:59 65.2 °F 43.9 °F 30.01 in SW 4.0 mph 5.0 mph 46% 0.00 in
20:04 64.8 °F 44.6 °F 30.01 in SW 4.0 mph 5.0 mph 48% 0.00 in
20:09 64.4 °F 42.6 °F 30.01 in SW 1.0 mph 6.0 mph 45% 0.00 in
20:14 64.0 °F 42.8 °F 30.01 in Calm   6.0 mph 46% 0.00 in
20:19 63.6 °F 41.9 °F 30.00 in SW 3.0 mph 6.0 mph 45% 0.00 in
20:24 63.3 °F 42.7 °F 30.01 in SW 3.0 mph 6.0 mph 47% 0.00 in
20:29 62.9 °F 42.4 °F 30.00 in SW 2.0 mph 4.0 mph 47% 0.00 in
20:34 62.5 °F 42.5 °F 30.00 in Calm     48% 0.00 in
20:39 62.2 °F 42.8 °F 30.00 in Calm     49% 0.00 in
20:44 61.8 °F 42.4 °F 30.00 in Calm     49% 0.00 in
20:49 61.4 °F 42.1 °F 30.01 in Calm     49% 0.00 in
20:54 61.3 °F 42.0 °F 30.00 in Calm     49% 0.00 in
20:59 60.9 °F 41.6 °F 30.00 in Calm     49% 0.00 in
21:04 60.6 °F 42.4 °F 30.00 in Calm     51% 0.00 in
21:09 60.1 °F 41.9 °F 30.00 in Calm     51% 0.00 in
21:14 59.7 °F 42.5 °F 30.00 in Calm     53% 0.00 in
21:19 59.4 °F 42.7 °F 30.00 in Calm     54% 0.00 in
21:24 58.9 °F 42.8 °F 30.00 in Calm     55% 0.00 in
21:29 58.8 °F 42.7 °F 30.01 in Calm     55% 0.00 in
21:34 58.7 °F 42.6 °F 30.01 in Calm     55% 0.00 in
21:39 58.6 °F 42.5 °F 30.01 in Calm     55% 0.00 in
21:44 58.6 °F 42.0 °F 30.01 in Calm     54% 0.00 in
21:49 58.1 °F 42.5 °F 30.01 in Calm     56% 0.00 in
21:54 58.2 °F 42.1 °F 30.01 in Calm     55% 0.00 in
21:59 57.9 °F 42.3 °F 30.01 in Calm     56% 0.00 in
22:04 57.6 °F 42.5 °F 30.02 in Calm     57% 0.00 in
22:09 57.3 °F 42.6 °F 30.02 in Calm     58% 0.00 in
22:14 57.1 °F 42.9 °F 30.02 in Calm     59% 0.00 in
22:19 56.8 °F 43.1 °F 30.02 in Calm     60% 0.00 in
22:24 56.7 °F 43.0 °F 30.02 in Calm     60% 0.00 in
22:29 56.8 °F 43.1 °F 30.01 in Calm     60% 0.00 in
22:34 56.9 °F 43.2 °F 30.01 in Calm     60% 0.00 in
22:39 56.4 °F 43.1 °F 30.01 in Calm     61% 0.00 in
22:44 56.1 °F 43.3 °F 30.01 in Calm     62% 0.00 in
22:49 56.0 °F 43.6 °F 30.01 in Calm     63% 0.00 in
22:54 56.3 °F 44.3 °F 30.01 in Calm     64% 0.00 in
22:59 56.2 °F 44.6 °F 30.01 in Calm     65% 0.00 in
23:04 55.8 °F 45.0 °F 30.01 in Calm     67% 0.00 in
23:09 55.6 °F 45.2 °F 30.01 in Calm     68% 0.00 in
23:14 55.5 °F 45.1 °F 30.01 in Calm     68% 0.00 in
23:19 55.5 °F 45.5 °F 30.01 in Calm     69% 0.00 in
23:24 55.5 °F 45.9 °F 30.01 in Calm     70% 0.00 in
23:29 55.3 °F 45.7 °F 30.00 in Calm     70% 0.00 in
23:34 55.2 °F 46.0 °F 30.00 in Calm     71% 0.00 in
23:39 55.1 °F 46.2 °F 30.01 in Calm     72% 0.00 in
23:44 55.0 °F 46.5 °F 30.01 in Calm     73% 0.00 in
23:49 54.8 °F 46.3 °F 30.01 in Calm     73% 0.00 in
23:54 54.9 °F 46.4 °F 30.01 in Calm     73% 0.00 in
23:59 54.7 °F 46.2 °F 30.01 in Calm     73% 0.00 in
Buffalo, New York, USA
Compliments of Weather Underground - 2.5 mb